Regional Weather Roundup
Issued by NWS

Home | Current Version | Previous Version | Text Only | Print | Product List | Glossary Off
Versions: 1 2 3 4 5 6 7 8 9 10 11 12 13 14 15 16 17 18 19 20 21 22 23 24 25 26 27

000
ASUS45 KPSR 261610
RWRAZ

ARIZONA HOURLY REGIONAL WEATHER ROUNDUP
NATIONAL WEATHER SERVICE PHOENIX AZ
900 AM MST TUE JUL 26 2016

NOTE: FAIR INDICATES FEW OR NO CLOUDS BELOW 12,000 FEET WITH NO
SIGNIFICANT WEATHER AND/OR OBSTRUCTIONS TO VISIBILITY.

AZZ001>003-036-261700-
NORTHWEST ARIZONA

CITY           SKY/WX    TMP DP  RH WIND       PRES   REMARKS
BULLHEAD CITY  SUNNY     97  55  24 SW5       29.85S
KINGMAN        MOSUNNY   91  48  22 CALM      30.07S
$$

AZZ004>008-015-016-018-261700-
NORTH CENTRAL ARIZONA

CITY           SKY/WX    TMP DP  RH WIND       PRES   REMARKS
GRAND CANYON   CLOUDY    79  45  29 SE7       30.35R
WILLIAMS       CLOUDY    72  52  49 CALM      30.43R
PRESCOTT       MOSUNNY   81  57  43 VRB5      30.20S
FLAGSTAFF      PTSUNNY   65  58  78 CALM      30.38S
PAYSON         SUNNY     81  52  36 SE6       30.24S
PAGE           MOSUNNY   86  45  23 NW5       30.15S
$$

AZZ009>014-017-261700-
NORTHEAST ARIZONA

CITY           SKY/WX    TMP DP  RH WIND       PRES   REMARKS
WINSLOW        MOSUNNY   83  53  35 CALM      30.22F
SAINT JOHNS    SUNNY     79  53  40 CALM      30.25F
WINDOW ROCK    CLOUDY    74  54  49 CALM      30.36S
SHOW LOW       SUNNY     77  48  36 S7        30.32F
$$

AZZ023-261700-
GREATER PHOENIX AREA

CITY           SKY/WX    TMP DP  RH WIND       PRES   REMARKS
PHOENIX        MOSUNNY   98  56  24 CALM      29.87S
BUCKEYE        SUNNY     93  59  31 S3        29.90S
GLENDALE       MOSUNNY   97  57  26 CALM      29.90S
LUKE AFB       MOSUNNY   97  58  27 SE5       29.87S
DEER VALLEY    MOSUNNY   95  54  25 CALM      29.90S
MESA-FALCON    MOSUNNY  N/A N/A N/A NE7       29.88S
MESA-GATEWAY   MOSUNNY   93  59  31 CALM      29.91S
CHANDLER       SUNNY     95  59  30 VRB6      29.90S
$$

AZZ027-028-261700-
SOUTHWEST MARICOPA COUNTY AND PINAL COUNTY

CITY           SKY/WX    TMP DP  RH WIND       PRES   REMARKS
CASA GRANDE    SUNNY     95  57  28 SW5       29.94S
GILA BEND      SUNNY     98  60  28 W6        29.86F
$$

AZZ503-504-507>509-261700-
SOUTHEAST ARIZONA

CITY           SKY/WX    TMP DP  RH WIND       PRES   REMARKS
TUCSON         MOSUNNY   92  60  34 CALM      30.05R
DAVIS-MONTHAN  SUNNY     90  59  34 NE2       30.04R
RYAN FIELD     SUNNY    N/A N/A N/A SW15      30.02S
NOGALES        PTSUNNY   81  66  60 SW3       30.14S
SIERRA VISTA   MOSUNNY   82  62  51 NE13      30.19S
DOUGLAS        MOSUNNY   78  63  59 SE8       30.15F
SAFFORD        MOSUNNY   87  59  38 SE9       30.07S
$$

AZZ020-021-025-026-031-261700-
SOUTHWEST ARIZONA

CITY           SKY/WX    TMP DP  RH WIND       PRES   REMARKS
YUMA           MOSUNNY   91  71  51 S12       29.84R
$$

CAZ031-033-041-043-047-048-061-261700-
SOUTHERN CALIFORNIA

CITY           SKY/WX    TMP DP  RH WIND       PRES   REMARKS
DOWNTOWN L.A.  SUNNY     77  64  64 CALM      29.89S
L.A. AIRPORT   MOSUNNY   70  64  81 W12       29.91S
SAN DIEGO      PTSUNNY   73  66  78 NW6       29.92F
BURBANK        SUNNY     81  56  42 CALM      29.91S
ONTARIO        MOSUNNY   81  60  48 W3        29.91S
RIVERSIDE      SUNNY     83  59  44 CALM      29.91S
PALM SPRINGS   SUNNY     97  54  23 S3        29.83S
EL CENTRO NAS  MOSUNNY   95  66  38 S5        29.82S
IMPERIAL       SUNNY     97  67  37 S8        29.80S HX 101
BLYTHE         MOSUNNY   97  64  33 S12       29.83S
NEEDLES        MOSUNNY  101  58  24 CALM      29.86S HX 100
$$

NVZ020-UTZ003-261700-
SOUTHERN NEVADA-UTAH

CITY           SKY/WX    TMP DP  RH WIND       PRES   REMARKS
LAS VEGAS      SUNNY     94  50  22 VRB3      29.91S
SALT LAKE CITY MOSUNNY   89  41  18 S8        30.07S
$$

NMZ009-TXZ055-261700-
NEW MEXICO-WEST TEXAS

CITY           SKY/WX    TMP DP  RH WIND       PRES   REMARKS
ALBUQUERQUE    CLOUDY    76  58  53 W7        30.28S
EL PASO        MOSUNNY   84  58  40 N10       30.14F
$$


........................KEY........................
SKY/WX - SKY CONDITION/WEATHER
TMP    - TEMPERATURE IN FAHRENHEIT
DP     - DEW POINT IN FAHRENHEIT
RH     - RELATIVE HUMIDITY IN PERCENT
WIND   - DIRECTION AND SPEED IN MILES PER HOUR (MPH)
VRB    - VARIABLE WIND DIRECTION
PRES   - MEAN SEA LEVEL PRESSURE IN INCHES OF MERCURY
         F - FALLING PRESSURE   R - RISING PRESSURE
         S - STEADY PRESSURE
VSB    - VISIBILITY IN MILES
HX     - HEAT INDEX IN FAHRENHEIT
WCI    - WIND CHILL INDEX IN FAHRENHEIT
TC     - TEMPERATURE IN CELSIUS WHICH IS ALSO KNOWN AS
         TEMPERATURE IN CENTIGRADE
AFB    - AIR FORCE BASE
         LUKE AFB IS LUKE AIR FORCE BASE
         DAVIS-MONTHAN IS DAVIS-MONTHAN AIR FORCE BASE
NAS    - NAVAL AIR STATION
         EL CENTRO NAS IS EL CENTRO NAVAL AIR STATION
N/A    - NOT AVAILABLE





USA.gov is the U.S. government's official web portal to all federal, state and local government web resources and services.